TimeAKST,TemperatureF,Dew PointF,Humidity,Sea Level PressureIn,VisibilityMPH,Wind Direction,Wind SpeedMPH,Gust SpeedMPH,PrecipitationIn,Events,Conditions,WindDirDegrees,DateUTC
12:53 AM,19.0,15.1,85,29.55,0.8,NNE,24.2,31.1,0.06,Snow,Light Snow,20,2013-01-28 09:53:00
1:07 AM,19.4,15.8,86,29.54,1.0,NNE,26.5,32.2,0.01,Snow,Light Snow,20,2013-01-28 10:07:00
1:53 AM,19.0,15.1,85,29.50,1.2,NNE,26.5,32.2,0.04,Snow,Light Snow,20,2013-01-28 10:53:00
2:35 AM,17.6,14.0,86,29.44,1.5,NNE,25.3,-,0.02,Snow,Light Snow,20,2013-01-28 11:35:00
2:53 AM,17.6,14.0,86,29.42,1.8,NNE,25.3,32.2,N/A,Snow,Light Snow,20,2013-01-28 11:53:00
3:01 AM,19.4,15.8,86,29.42,2.0,NNE,21.9,32.2,0.01,Snow,Light Snow,30,2013-01-28 12:01:00
3:34 AM,21.2,17.6,86,29.38,3.0,NNE,17.3,24.2,0.03,Snow,Light Snow,30,2013-01-28 12:34:00
3:50 AM,19.4,17.6,93,29.38,2.5,North,15.0,25.3,0.04,Snow,Light Snow,10,2013-01-28 12:50:00
3:53 AM,21.0,17.1,85,29.38,2.5,NNE,15.0,23.0,0.05,Snow,Light Snow,20,2013-01-28 12:53:00
4:00 AM,21.2,17.6,86,29.37,2.5,NNE,13.8,24.2,0.00,Snow,Light Snow,20,2013-01-28 13:00:00
4:29 AM,19.4,17.6,93,29.35,3.0,North,18.4,26.5,0.03,Snow,Light Snow,10,2013-01-28 13:29:00
4:53 AM,19.9,17.1,89,29.33,3.0,North,15.0,21.9,0.06,Snow,Light Snow,10,2013-01-28 13:53:00
5:12 AM,19.4,15.8,86,29.30,2.0,NNE,19.6,25.3,0.03,Snow,Light Snow,20,2013-01-28 14:12:00
5:23 AM,21.2,17.6,86,29.27,4.0,NNE,19.6,-,0.04,Snow,Light Snow,20,2013-01-28 14:23:00
5:33 AM,21.2,17.6,86,29.25,3.0,NNE,19.6,26.5,0.05,Snow,Light Snow,20,2013-01-28 14:33:00
5:53 AM,21.9,19.0,89,29.24,3.0,NNE,16.1,24.2,0.07,Snow,Light Snow,20,2013-01-28 14:53:00
6:17 AM,23.0,19.4,86,29.21,4.0,NNE,19.6,-,0.03,,Overcast,20,2013-01-28 15:17:00
6:37 AM,23.0,19.4,86,29.20,2.5,NNE,23.0,27.6,0.05,Snow,Light Snow,20,2013-01-28 15:37:00
6:48 AM,28.4,24.8,86,29.16,3.0,NE,20.7,34.5,0.05,Snow,Light Snow,40,2013-01-28 15:48:00
6:53 AM,33.1,28.9,85,29.16,3.0,East,31.1,42.6,0.06,Snow,Light Snow,80,2013-01-28 15:53:00
6:56 AM,33.8,30.2,87,29.15,2.0,East,31.1,44.9,0.00,Snow,Light Snow,90,2013-01-28 15:56:00
7:18 AM,33.8,30.2,87,29.13,1.2,ENE,36.8,49.5,0.00,Snow,Light Snow,70,2013-01-28 16:18:00
7:53 AM,34.0,30.0,85,29.13,1.2,ENE,40.3,61.0,0.02,Snow,Light Snow,70,2013-01-28 16:53:00
8:23 AM,33.8,30.2,87,29.07,2.0,East,36.8,50.6,0.04,Snow,Light Snow,80,2013-01-28 17:23:00
8:42 AM,35.6,30.2,81,29.07,4.0,East,33.4,54.1,0.04,Snow,Light Snow,80,2013-01-28 17:42:00
8:53 AM,35.1,30.9,85,29.08,6.0,East,26.5,42.6,0.04,Snow,Light Snow,90,2013-01-28 17:53:00
9:53 AM,37.9,30.9,76,29.04,10.0,ESE,18.4,26.5,0.02,Rain,Light Rain,110,2013-01-28 18:53:00
10:11 AM,37.4,30.2,75,29.02,6.0,SE,15.0,34.5,0.01,Rain,Rain,130,2013-01-28 19:11:00
10:53 AM,37.0,30.9,79,29.01,10.0,SE,17.3,20.7,0.02,,Overcast,140,2013-01-28 19:53:00
11:13 AM,37.4,30.2,75,29.00,10.0,SE,19.6,26.5,N/A,,Overcast,130,2013-01-28 20:13:00
11:36 AM,37.4,30.2,75,28.99,10.0,SSE,25.3,34.5,0.00,Rain,Light Rain,150,2013-01-28 20:36:00
11:53 AM,37.9,30.9,76,29.01,10.0,ESE,13.8,27.6,0.00,Rain,Light Rain,120,2013-01-28 20:53:00
12:53 PM,37.9,30.9,76,28.96,10.0,East,28.8,43.7,0.00,Rain,Light Rain,100,2013-01-28 21:53:00
1:53 PM,37.9,30.9,76,28.95,10.0,ESE,21.9,29.9,0.00,,Overcast,110,2013-01-28 22:53:00
2:53 PM,39.0,30.9,73,28.92,10.0,ESE,19.6,32.2,N/A,,Overcast,110,2013-01-28 23:53:00
3:53 PM,37.9,32.0,79,28.90,10.0,SE,12.7,-,0.00,Rain,Light Rain,140,2013-01-29 00:53:00
4:53 PM,37.9,33.1,83,28.88,10.0,SE,13.8,-,0.03,Rain,Light Rain,140,2013-01-29 01:53:00
5:44 PM,37.4,33.8,87,28.86,10.0,ESE,11.5,-,0.01,,Overcast,120,2013-01-29 02:44:00
5:53 PM,39.0,34.0,82,28.86,10.0,SE,13.8,-,0.01,,Overcast,130,2013-01-29 02:53:00
6:53 PM,39.0,34.0,82,28.84,10.0,ESE,13.8,23.0,0.00,,Overcast,110,2013-01-29 03:53:00
7:53 PM,37.9,34.0,86,28.84,9.0,ESE,18.4,-,0.02,Rain,Rain,120,2013-01-29 04:53:00
8:53 PM,37.9,35.1,89,28.83,9.0,ESE,17.3,-,0.10,Rain,Light Rain,120,2013-01-29 05:53:00
9:44 PM,39.2,35.6,87,28.83,4.0,SE,16.1,-,0.02,Rain,Light Rain,130,2013-01-29 06:44:00
9:53 PM,39.0,36.0,89,28.84,4.0,SE,20.7,-,0.03,Rain,Light Rain,130,2013-01-29 06:53:00
10:47 PM,37.4,35.6,93,28.84,4.0,SE,24.2,33.4,0.02,Rain,Light Rain,140,2013-01-29 07:47:00
10:53 PM,37.9,37.0,97,28.85,5.0,SE,21.9,-,0.02,Rain,Light Rain,140,2013-01-29 07:53:00
11:29 PM,37.4,35.6,93,28.85,4.0,SE,23.0,-,0.00,Rain,Light Rain,140,2013-01-29 08:29:00
11:37 PM,37.4,35.6,93,28.86,4.0,SE,23.0,-,0.01,Rain,Light Rain,140,2013-01-29 08:37:00
11:53 PM,37.9,36.0,93,28.87,4.0,SE,23.0,-,0.01,Rain,Light Rain,130,2013-01-29 08:53:00